When you browse on this site, cookies collect data to enhance your experience and personalize the content and advertising you see.
Visit our Privacy Policy to learn more. By continuing to use the site, you agree to this use of cookies and data.
  • In Czech Republic
  • List of Countries
  • For 7 days
  • Water Temperature
  • Weather Map
  • Weather Widgets
  • user-avatar
    Login

    Hourly Weather Urazovo

    Today, 25 February, Tuesday

    Time Temperature Precipitation Wind Pressure Humidity
    00:00 -4°C° 0 mm 3 mps 737 mmHg 91%
    01:00 -4°C° 0 mm 3 mps 737 mmHg 91%
    02:00 -5°C° 0 mm 3 mps 737 mmHg 92%
    03:00 -5°C° 0 mm 3 mps 737 mmHg 92%
    04:00 -4°C° 0 mm 3 mps 737 mmHg 91%
    05:00 -4°C° 0 mm 3 mps 738 mmHg 91%
    06:00 -4°C° 0 mm 3 mps 738 mmHg 89%
    07:00 -4°C° 0 mm 4 mps 738 mmHg 87%
    08:00 -4°C° 0 mm 4 mps 738 mmHg 85%
    09:00 -3°C° 0 mm 4 mps 738 mmHg 79%
    10:00 -2°C° 0 mm 4 mps 738 mmHg 73%
    11:00 -2°C° 0 mm 4 mps 738 mmHg 67%
    12:00 -1°C° 0 mm 4 mps 738 mmHg 63%
    13:00 -1°C° 0 mm 4 mps 738 mmHg 59%
    14:00 0°C° 0 mm 5 mps 739 mmHg 55%
    15:00 -1°C° 0 mm 4 mps 739 mmHg 61%
    16:00 -1°C° 0 mm 3 mps 739 mmHg 66%
    17:00 -3°C° 0 mm 2 mps 739 mmHg 71%
    18:00 -3°C° 0 mm 2 mps 739 mmHg 74%
    19:00 -3°C° 0 mm 2 mps 739 mmHg 77%
    20:00 -4°C° 0 mm 2 mps 739 mmHg 80%
    21:00 -4°C° 0 mm 2 mps 739 mmHg 81%
    22:00 -4°C° 0 mm 2 mps 739 mmHg 81%
    23:00 -4°C° 0 mm 2 mps 739 mmHg 82%

    Tomorrow, 26 February, Wednesday

    Time Temperature Precipitation Wind Pressure Humidity
    00:00 -4°C° 0 mm 2 mps 739 mmHg 82%
    01:00 -4°C° 0 mm 2 mps 739 mmHg 82%
    02:00 -4°C° 0 mm 2 mps 739 mmHg 82%
    03:00 -4°C° 0 mm 2 mps 738 mmHg 81%
    04:00 -5°C° 0 mm 3 mps 737 mmHg 81%
    05:00 -4°C° 0 mm 3 mps 737 mmHg 81%
    06:00 -4°C° 0 mm 4 mps 736 mmHg 82%
    07:00 -3°C° 0 mm 4 mps 736 mmHg 84%
    08:00 -4°C° 0 mm 5 mps 735 mmHg 85%
    09:00 -2°C° 0.1 mm 5 mps 734 mmHg 87%
    10:00 -2°C° 0.1 mm 5 mps 734 mmHg 89%
    11:00 -1°C° 0.1 mm 5 mps 733 mmHg 91%
    12:00 0°C° 0.2 mm 5 mps 733 mmHg 92%
    13:00 0°C° 0.2 mm 5 mps 732 mmHg 93%
    14:00 +1°C° 0.2 mm 6 mps 732 mmHg 95%
    15:00 +1°C° 0.4 mm 5 mps 732 mmHg 95%
    16:00 +1°C° 0.4 mm 4 mps 732 mmHg 95%
    17:00 +1°C° 0.4 mm 4 mps 732 mmHg 95%
    18:00 +2°C° 0 mm 3 mps 732 mmHg 95%
    19:00 +1°C° 0 mm 3 mps 733 mmHg 95%
    20:00 +2°C° 0 mm 2 mps 734 mmHg 95%
    21:00 +1°C° 0 mm 2 mps 734 mmHg 95%
    22:00 +1°C° 0 mm 1 mps 734 mmHg 95%
    23:00 +1°C° 0 mm 1 mps 734 mmHg 95%

    Day after tomorrow, 27 February, Thursday

    Time Temperature Precipitation Wind Pressure Humidity
    00:00 +1°C° 0 mm 1 mps 734 mmHg 95%
    01:00 +1°C° 0 mm 1 mps 734 mmHg 95%
    02:00 0°C° 0 mm 0 mps 734 mmHg 95%
    03:00 +1°C° 0 mm 1 mps 734 mmHg 96%
    04:00 +1°C° 0 mm 1 mps 734 mmHg 96%
    05:00 +1°C° 0 mm 1 mps 734 mmHg 96%
    06:00 +1°C° 0 mm 1 mps 733 mmHg 95%
    07:00 +1°C° 0 mm 2 mps 733 mmHg 95%
    08:00 +1°C° 0 mm 2 mps 733 mmHg 94%
    09:00 +1°C° 0.7 mm 2 mps 733 mmHg 95%
    10:00 0°C° 0.7 mm 3 mps 733 mmHg 96%
    11:00 0°C° 0.7 mm 3 mps 732 mmHg 97%
    12:00 0°C° 0.7 mm 3 mps 732 mmHg 97%
    13:00 0°C° 0.7 mm 3 mps 732 mmHg 98%
    14:00 +1°C° 0.7 mm 2 mps 732 mmHg 98%
    15:00 +1°C° 0.5 mm 2 mps 731 mmHg 98%
    16:00 +1°C° 0.5 mm 2 mps 731 mmHg 98%
    17:00 +2°C° 0.5 mm 1 mps 731 mmHg 98%
    18:00 +2°C° 0 mm 1 mps 730 mmHg 98%
    19:00 +2°C° 0 mm 1 mps 730 mmHg 98%
    20:00 +2°C° 0 mm 1 mps 730 mmHg 98%
    21:00 +1°C° 0.1 mm 2 mps 730 mmHg 98%
    22:00 +2°C° 0.1 mm 2 mps 730 mmHg 98%
    23:00 +1°C° 0.1 mm 3 mps 730 mmHg 97%

    28 February, Friday

    Time Temperature Precipitation Wind Pressure Humidity
    00:00 0°C° 0 mm 3 mps 730 mmHg 96%
    01:00 0°C° 0 mm 3 mps 731 mmHg 95%
    02:00 0°C° 0 mm 3 mps 731 mmHg 94%
    03:00 0°C° 0 mm 3 mps 731 mmHg 93%
    04:00 -2°C° 0 mm 4 mps 732 mmHg 92%
    05:00 -2°C° 0 mm 4 mps 732 mmHg 91%
    06:00 -2°C° 0 mm 4 mps 733 mmHg 88%
    07:00 -2°C° 0 mm 4 mps 733 mmHg 84%
    08:00 -2°C° 0 mm 5 mps 734 mmHg 81%
    09:00 -2°C° 0 mm 5 mps 734 mmHg 79%
    10:00 -2°C° 0 mm 5 mps 735 mmHg 77%
    11:00 -2°C° 0 mm 5 mps 735 mmHg 74%
    12:00 -1°C° 0 mm 5 mps 735 mmHg 73%
    13:00 -1°C° 0 mm 5 mps 736 mmHg 71%
    14:00 -1°C° 0 mm 5 mps 736 mmHg 70%
    15:00 -2°C° 0 mm 4 mps 737 mmHg 72%
    16:00 -3°C° 0 mm 4 mps 737 mmHg 75%
    17:00 -2°C° 0 mm 3 mps 738 mmHg 78%
    18:00 -2°C° 0 mm 3 mps 738 mmHg 79%
    19:00 -4°C° 0 mm 3 mps 739 mmHg 80%
    20:00 -4°C° 0 mm 3 mps 739 mmHg 81%
    21:00 -4°C° 0 mm 3 mps 739 mmHg 81%
    22:00 -4°C° 0 mm 3 mps 740 mmHg 80%
    23:00 -5°C° 0 mm 3 mps 740 mmHg 80%

    29 February, Saturday

    Time Temperature Precipitation Wind Pressure Humidity
    00:00 -5°C° 0 mm 3 mps 741 mmHg 80%
    01:00 -3°C° 0 mm 2 mps 741 mmHg 80%
    02:00 -3°C° 0 mm 2 mps 741 mmHg 80%
    03:00 -4°C° 0 mm 2 mps 741 mmHg 80%
    04:00 -4°C° 0 mm 2 mps 741 mmHg 81%
    05:00 -4°C° 0 mm 2 mps 742 mmHg 82%
    06:00 -4°C° 0 mm 2 mps 742 mmHg 79%
    07:00 -3°C° 0 mm 2 mps 742 mmHg 77%
    08:00 -3°C° 0 mm 2 mps 742 mmHg 74%
    09:00 -2°C° 0 mm 2 mps 742 mmHg 69%
    10:00 -1°C° 0 mm 2 mps 742 mmHg 65%
    11:00 -1°C° 0 mm 2 mps 743 mmHg 60%
    12:00 +1°C° 0 mm 2 mps 743 mmHg 59%
    13:00 +1°C° 0 mm 2 mps 743 mmHg 58%
    14:00 +2°C° 0 mm 2 mps 743 mmHg 56%
    15:00 +1°C° 0 mm 2 mps 743 mmHg 62%
    16:00 -1°C° 0 mm 2 mps 743 mmHg 67%
    17:00 -2°C° 0 mm 2 mps 743 mmHg 73%
    18:00 -2°C° 0 mm 2 mps 743 mmHg 74%
    19:00 -2°C° 0 mm 3 mps 744 mmHg 75%
    20:00 -2°C° 0 mm 3 mps 744 mmHg 76%
    21:00 -2°C° 0 mm 3 mps 744 mmHg 80%
    22:00 -3°C° 0 mm 2 mps 744 mmHg 85%
    23:00 -3°C° 0 mm 2 mps 744 mmHg 89%

    1 March, Sunday

    Time Temperature Precipitation Wind Pressure Humidity
    00:00 -3°C° 0 mm 2 mps 745 mmHg 88%
    01:00 -3°C° 0 mm 2 mps 745 mmHg 86%
    02:00 -4°C° 0 mm 2 mps 745 mmHg 84%
    03:00 -4°C° 0 mm 2 mps 745 mmHg 85%
    04:00 -4°C° 0 mm 2 mps 746 mmHg 85%
    05:00 -4°C° 0 mm 2 mps 746 mmHg 85%
    06:00 -4°C° 0 mm 2 mps 746 mmHg 85%
    07:00 -4°C° 0 mm 2 mps 747 mmHg 85%
    08:00 -3°C° 0 mm 2 mps 747 mmHg 84%
    09:00 -2°C° 0 mm 2 mps 748 mmHg 80%
    10:00 -2°C° 0 mm 2 mps 748 mmHg 76%
    11:00 -1°C° 0 mm 2 mps 748 mmHg 72%
    12:00 -1°C° 0 mm 2 mps 749 mmHg 70%
    13:00 +2°C° 0 mm 1 mps 749 mmHg 69%
    14:00 +2°C° 0 mm 1 mps 749 mmHg 67%
    15:00 +1°C° 0 mm 1 mps 749 mmHg 70%
    16:00 +1°C° 0 mm 1 mps 750 mmHg 73%
    17:00 +1°C° 0 mm 1 mps 750 mmHg 76%
    18:00 0°C° 0 mm 1 mps 750 mmHg 77%
    19:00 0°C° 0 mm 1 mps 750 mmHg 78%
    20:00 0°C° 0 mm 1 mps 751 mmHg 79%
    21:00 -1°C° 0 mm 1 mps 751 mmHg 80%
    22:00 -3°C° 0 mm 2 mps 751 mmHg 80%
    23:00 -3°C° 0 mm 2 mps 751 mmHg 81%
    Show more